Date String (YYYY-MM-DD hh:mm:ss) UTC,Instrument flags,Ambient pressure (hPa),Sample flow (lpm),Bypass flow (lpm),Sample temperature (°C),Ambient temperature (°C),ASC tube jacket temperature (°C),LED temperature (°C),Box temperature (°C),Sample RH (%),Span deviation,Mass concentration (μg/m³),Mass concentration (μg/m³),Mass concentration (μg/m³)
DateTimeUTC,F1_M11,P_M11,Q1_M11,Q2_M11,T1_M11,T2_M11,T3_M11,T4_M11,T5_M11,U1_M11,ZSPAN_M11,X0_M11,X2_M11,X1_M11
2022-12-11 16:00:00,,0820.9,5.01,0.00,22.5,21.4,00.0,31.2,24.4,09.4,0000.0,0007.57,0003.42,0002.66
2022-12-11 16:01:00,,0820.9,5.02,0.00,22.6,21.5,00.0,31.2,24.4,09.6,0000.0,0007.81,0003.50,0002.78
2022-12-11 16:02:00,,0820.9,4.98,0.00,22.6,21.5,00.0,31.3,24.4,10.0,0000.0,0008.05,0003.62,0002.96
2022-12-11 16:03:00,,0820.9,4.99,0.00,22.6,21.5,00.0,31.3,24.5,10.1,0000.0,0008.26,0003.75,0003.12
2022-12-11 16:04:00,,0820.9,5.03,0.00,22.6,21.5,00.0,31.3,24.5,09.9,0000.0,0008.59,0003.84,0003.19
2022-12-11 16:05:00,,0820.9,4.99,0.00,22.6,21.6,00.0,31.3,24.5,09.0,0000.0,0008.72,0003.89,0003.22
2022-12-11 16:06:00,,0820.9,4.98,0.00,22.7,21.6,00.0,31.3,24.5,09.9,0000.0,0008.86,0003.96,0003.29
2022-12-11 16:07:00,,0820.9,5.02,0.00,22.7,21.6,00.0,31.3,24.6,09.2,0000.0,0009.18,0004.03,0003.35
2022-12-11 16:08:00,,0820.9,5.00,0.00,22.7,21.6,00.0,31.4,24.6,09.3,0000.0,0009.06,0003.95,0003.32
2022-12-11 16:09:00,,0820.9,4.99,0.00,22.7,21.7,00.0,31.4,24.6,10.7,0000.0,0009.30,0003.86,0003.28
2022-12-11 16:10:00,,0820.9,4.98,0.00,22.7,21.7,00.0,31.4,24.6,10.6,0000.0,0009.88,0003.96,0003.36
2022-12-11 16:11:00,,0820.9,5.03,0.00,22.8,21.7,00.0,31.4,24.6,11.5,0000.0,0010.88,0004.12,0003.47
2022-12-11 16:12:00,,0821.0,4.98,0.00,22.8,21.7,00.0,31.4,24.7,11.5,0000.0,0013.02,0004.42,0003.66
2022-12-11 16:13:00,,0820.9,4.99,0.00,22.8,21.7,00.0,31.5,24.7,11.1,0000.0,0014.22,0004.65,0003.83
2022-12-11 16:14:00,,0820.8,5.00,0.00,22.8,21.7,00.0,31.5,24.7,10.7,0000.0,0015.25,0004.83,0003.97
2022-12-11 16:15:00,,0820.8,4.96,0.00,22.8,21.8,00.0,31.5,24.7,10.7,0000.0,0015.71,0004.92,0004.03
2022-12-11 16:16:00,,0820.8,4.99,0.00,22.8,21.8,00.0,31.5,24.8,10.3,0000.0,0015.67,0004.99,0004.07
2022-12-11 16:17:00,,0820.8,4.99,0.00,22.9,21.8,00.0,31.5,24.8,10.1,0000.0,0016.33,0005.25,0004.21
2022-12-11 16:18:00,,0820.8,5.01,0.00,22.9,21.8,00.0,31.5,24.8,09.7,0000.0,0017.36,0005.50,0004.32
2022-12-11 16:19:00,,0820.8,5.01,0.00,22.9,21.8,00.0,31.6,24.8,08.8,0000.0,0018.15,0005.58,0004.35
2022-12-11 16:20:00,,0820.8,4.98,0.00,22.9,21.9,00.0,31.6,24.8,08.7,0000.0,0018.57,0005.72,0004.42
2022-12-11 16:21:00,,0820.9,5.00,0.00,22.9,21.9,00.0,31.6,24.9,08.9,0000.0,0018.84,0005.85,0004.45
2022-12-11 16:22:00,,0820.9,5.02,0.00,23.0,21.9,00.0,31.6,24.9,09.0,0000.0,0018.25,0005.88,0004.41
2022-12-11 16:23:00,,0820.9,4.99,0.00,23.0,21.9,00.0,31.6,24.9,09.1,0000.0,0017.83,0005.85,0004.39
2022-12-11 16:24:00,,0820.9,4.98,0.00,23.0,22.0,00.0,31.7,24.9,08.8,0000.0,0017.13,0005.68,0004.27
2022-12-11 16:25:00,,0820.8,5.02,0.00,23.0,22.0,00.0,31.7,24.9,08.7,0000.0,0015.02,0005.46,0004.13
2022-12-11 16:26:00,,0820.8,5.00,0.00,23.0,22.0,00.0,31.7,24.9,08.8,0000.0,0014.71,0005.40,0004.01
2022-12-11 16:27:00,,0820.8,4.99,0.00,23.1,22.0,00.0,31.7,25.0,08.9,0000.0,0013.88,0005.28,0003.91
2022-12-11 16:28:00,,0820.8,4.98,0.00,23.1,22.1,00.0,31.7,25.0,08.9,0000.0,0014.30,0005.20,0003.87
2022-12-11 16:29:00,,0820.8,5.01,0.00,23.1,22.1,00.0,31.8,25.0,08.6,0000.0,0013.64,0005.05,0003.81
2022-12-11 16:30:00,,0820.8,5.02,0.00,23.1,22.1,00.0,31.8,25.0,08.6,0000.0,0013.13,0005.06,0003.78
2022-12-11 16:31:00,,0820.8,4.98,0.00,23.1,22.1,00.0,31.8,25.0,08.9,0000.0,0013.78,0005.04,0003.78
2022-12-11 16:32:00,,0820.8,4.99,0.00,23.2,22.2,00.0,31.8,25.1,09.6,0000.0,0014.41,0005.06,0003.79
2022-12-11 16:33:00,,0820.7,5.02,0.00,23.2,22.2,00.0,31.8,25.1,09.8,0000.0,0015.29,0005.09,0003.83
2022-12-11 16:34:00,,0820.7,5.00,0.00,23.2,22.2,00.0,31.9,25.1,09.7,0000.0,0015.65,0005.17,0003.87
2022-12-11 16:35:00,,0820.7,4.99,0.00,23.2,22.2,00.0,31.9,25.1,09.7,0000.0,0015.42,0005.28,0003.92
2022-12-11 16:36:00,,0820.7,5.00,0.00,23.3,22.2,00.0,31.9,25.1,09.9,0000.0,0016.19,0005.41,0003.97
2022-12-11 16:37:00,,0820.7,5.03,0.00,23.3,22.3,00.0,31.9,25.2,09.8,0000.0,0017.51,0005.47,0004.03
2022-12-11 16:38:00,,0820.6,4.99,0.00,23.3,22.3,00.0,31.9,25.2,09.8,0000.0,0017.63,0005.50,0004.07
2022-12-11 16:39:00,,0820.7,4.98,0.00,23.3,22.3,00.0,32.0,25.2,09.4,0000.0,0017.28,0005.52,0004.09
2022-12-11 16:40:00,,0820.7,5.01,0.00,23.3,22.3,00.0,32.0,25.2,09.2,0000.0,0017.21,0005.49,0004.08
2022-12-11 16:41:00,,0820.7,5.02,0.00,23.3,22.4,00.0,32.0,25.2,09.5,0000.0,0017.55,0005.50,0004.12
2022-12-11 16:42:00,,0820.8,4.99,0.00,23.4,22.4,00.0,32.0,25.2,09.2,0000.0,0017.47,0005.52,0004.15
2022-12-11 16:43:00,,0820.7,4.99,0.00,23.4,22.4,00.0,32.1,25.3,09.2,0000.0,0016.29,0005.49,0004.15
2022-12-11 16:44:00,,0820.7,5.01,0.00,23.4,22.4,00.0,32.1,25.3,09.3,0000.0,0015.68,0005.44,0004.12
2022-12-11 16:45:00,,0820.7,5.02,0.00,23.4,22.4,00.0,32.1,25.3,09.5,0000.0,0015.29,0005.36,0004.11
2022-12-11 16:46:00,,0820.7,4.99,0.00,23.5,22.5,00.0,32.1,25.4,09.3,0000.0,0015.47,0005.31,0004.09
2022-12-11 16:47:00,,0820.8,4.99,0.00,23.5,22.5,00.0,32.1,25.4,09.2,0000.0,0015.57,0005.18,0004.06
2022-12-11 16:48:00,,0820.9,4.99,0.00,23.5,22.5,00.0,32.2,25.4,09.1,0000.0,0014.67,0005.10,0004.01
2022-12-11 16:49:00,,0820.8,5.03,0.00,23.5,22.5,00.0,32.2,25.5,09.3,0000.0,0015.10,0005.03,0003.97
2022-12-11 16:50:00,,0820.7,4.99,0.00,23.5,22.6,00.0,32.2,25.5,09.2,0000.0,0015.10,0004.97,0003.96
2022-12-11 16:51:00,,0820.7,4.99,0.00,23.6,22.6,00.0,32.2,25.5,09.0,0000.0,0015.98,0005.02,0003.98
2022-12-11 16:52:00,,0820.7,4.99,0.00,23.6,22.6,00.0,32.2,25.5,08.9,0000.0,0016.11,0004.99,0003.98
2022-12-11 16:53:00,,0820.6,5.02,0.00,23.6,22.6,00.0,32.3,25.5,09.4,0000.0,0015.68,0005.04,0004.01
2022-12-11 16:54:00,,0820.6,5.00,0.00,23.6,22.6,00.0,32.3,25.5,09.6,0000.0,0016.72,0005.15,0004.08
2022-12-11 16:55:00,,0820.6,4.98,0.00,23.6,22.7,00.0,32.3,25.5,09.8,0000.0,0018.60,0005.25,0004.16
2022-12-11 16:56:00,,0820.7,4.99,0.00,23.7,22.7,00.0,32.3,25.6,09.7,0000.0,0019.37,0005.37,0004.22
2022-12-11 16:57:00,,0820.6,5.03,0.00,23.7,22.7,00.0,32.3,25.6,09.5,0000.0,0019.82,0005.42,0004.26
2022-12-11 16:58:00,,0820.7,4.99,0.00,23.7,22.7,00.0,32.4,25.6,09.4,0000.0,0019.63,0005.47,0004.28
2022-12-11 16:59:00,,0820.7,4.99,0.00,23.7,22.8,00.0,32.4,25.6,09.5,0000.0,0019.74,0005.51,0004.31
